Torna al catalogo

THOR ABLESTAR DEB

AttivoLEO
NORAD 335·DEBRIS·🇺🇸 United States

Lanciato Jun 29, 1961 da Cape Canaveral Space Force Station

Loading…

Prossimi Passaggi (prossime 24 ore)

TLE

AggiornatoSource: Space-Track

Epoca: Sep 6, 2026, 10:41 UTC

1 00335U 61015DM  26249.44540146  .00000295  00000-0  16637-3 0  9997
2 00335  66.8381 280.6707 0031023 116.0963 244.3331 14.23080013338871

Traccia THOR ABLESTAR DEB in tempo reale con AllMySat

Download on the App Store